Regional Weather Roundup
Issued by NWS

Home | Current Version | Previous Version | Graphics & Text | Print | Product List | Glossary On
Versions: 1 2 3 4 5 6 7 8 9 10 11 12 13 14 15 16 17 18 19 20 21 22 23 24 25 26 27 28 29 30 31 32 33 34 35 36 37 38 39 40 41 42 43 44 45 46 47 48 49 50
000
ASUS43 KMKX 010721
RWRWI

WISCONSIN REGIONAL WEATHER ROUNDUP
NATIONAL WEATHER SERVICE MILWAUKEE/SULLIVAN WI
100 AM CST WED MAR 01 2017

NOTE: "FAIR" INDICATES FEW OR NO CLOUDS BELOW 12,000 FEET WITH NO
SIGNIFICANT WEATHER AND/OR OBSTRUCTIONS TO VISIBILITY.

WIZ001-002-006>008-014>016-023>028-010800-
NORTHWEST WISCONSIN

CITY           SKY/WX    TMP DP  RH WIND       PRES   REMARKS
SUPERIOR ARPT  CLOUDY    27  22  81 E13G23    29.83S WCI  16
ASHLAND        LGT SNOW  25  23  92 N16G24    29.80F FOG     WCI  12
HAYWARD        FLURRIES  27  22  81 NE16      29.73S WCI  15
SIREN          CLOUDY    27  24  89 NE10      29.75S WCI  17
CUMBERLAND     CLOUDY    28  23  80 NE12G21   29.69S WCI  18
RICE LAKE      CLOUDY    30  26  83 N16G28    29.71S WCI  19
CHETEK         CLOUDY    31  27  84 N10       29.69S WCI  22
LADYSMITH      CLOUDY    31  26  81 N12G21    29.70R WCI  22
EAU CLAIRE     CLOUDY    33  28  81 NE14G20   29.64F WCI  23
MENOMONIE      CLOUDY    33  29  84 N13G18    29.67F WCI  24
NEW RICHMOND   CLOUDY    30  25  80 NE10      29.70S WCI  21
OSCEOLA        CLOUDY    31  25  78 N9G17     29.75S WCI  23
$$

WIZ003>005-009-010-017-018-010800-
NORTH CENTRAL WISCONSIN

CITY           SKY/WX    TMP DP  RH WIND       PRES   REMARKS
MANITOWISH WTR LGT SNOW  25  24  96 NE9G20    29.68F WCI  15
ARBOR VITAE    CLOUDY    28  26  91 N10         N/A  WCI  18
WOODRUFF       CLOUDY    28  26  91 N10         N/A  WCI  18
RHINELANDER    CLOUDY    29  25  85 NE12G23   29.64S WCI  19
EAGLE RIVER    CLOUDY    26  25  97 NE15G25   29.66S WCI  13
LAND O LAKES   CLOUDY    25  24  97 NE12G23   29.69S WCI  14
PHILLIPS       CLOUDY    28  26  93 N16       29.66F WCI  15
TOMAHAWK       CLOUDY    29  25  82 N3        29.65S
MEDFORD        CLOUDY    30  28  92 NE15      29.61F WCI  19
MERRILL        NOT AVBL
$$

WIZ029-030-035-036-043>047-010800-
CENTRAL WISCONSIN

CITY           SKY/WX    TMP DP  RH WIND       PRES   REMARKS
WAUSAU         LGT SNOW  32  30  92 N8G22     29.59F FOG     WCI  25
MOSINEE        LGT SNOW  32  32 100 N9        29.60S VSB 1   WCI  24
MARSHFIELD     CLOUDY    33  30  88 N13G24    29.58S WCI  24
STEVENS POINT  CLOUDY    33  33 100 N10       29.59S WCI  25
WAUPACA        DRIZZLE   37  36  96 NE9G17    29.58S WCI  30
WAUTOMA        LGT RAIN  36  35  96 NE12G22   29.58R WCI  28
WISC RAPIDS    LGT RAIN  37  36  96 NE14      29.57F WCI  28
CAMP DOUGLAS   CLOUDY    38  38  99 N5        29.56S WCI  34
$$

WIZ011>013-019>022-031-037>040-048>050-010800-
NORTHEAST WISCONSIN

CITY           SKY/WX    TMP DP  RH WIND       PRES   REMARKS
ANTIGO         LGT SNOW  31  29  94 NE16G22   29.60R WCI  20
SHAWANO        LGT RAIN  35  33  92 N17       29.58F WCI  24
OCONTO         CLOUDY    34  32  94 N13       29.58S WCI  25
STURGEON BAY   LGT RAIN  33  33 100 N24G30    29.57R WCI  20
GREEN BAY      LGT RAIN  36  36 100 N17       29.57R WCI  26
MANITOWOC      LGT RAIN  36  35  96 N12       29.53R WCI  28
APPLETON       DRIZZLE   34  34 100 N18       29.53S WCI  23
CLINTONVILLE   RAIN      34  32  93 NE9G18    29.58S WCI  26
OSHKOSH        LGT RAIN  36  35  96 N15       29.54R WCI  27
$$

WIZ032>034-041-042-053>061-010800-
SOUTHWEST WISCONSIN

CITY           SKY/WX    TMP DP  RH WIND       PRES   REMARKS
LA CROSSE      CLOUDY    39  37  92 N10       29.61R WCI  32
SPARTA         CLOUDY    37  37  99 N7        29.60R WCI  31
VIROQUA        CLOUDY    38  38 100 N13       29.56R WCI  30
BOSCOBEL       CLOUDY    42  38  85 N6        29.57R
PRAIRIE DU CHI CLOUDY    40  39  97 CALM      29.56R
PLATTEVILLE    CLOUDY    43  43 100 N7        29.52R
$$

WIZ056-057-062-063-064-067-068-010800-
SOUTH CENTRAL WISCONSIN

CITY           SKY/WX    TMP DP  RH WIND       PRES   REMARKS
REEDSBURG      CLOUDY    37  37 100 N5        29.54R WCI  34
BARABOO/DELLS  DRIZZLE   37  37  99 NE12      29.53S WCI  29
LONE ROCK      CLOUDY    41  38  89 N7        29.56R
MINERAL POINT  CLOUDY    43  43 100 NE7       29.51R FOG
MADISON        CLOUDY    39  37  92 N13       29.53R WCI  31
MIDDLETON      CLOUDY    40  40 100 NE14      29.53S WCI  33
WATERTOWN      CLOUDY    39  39 100 NW8       29.51R WCI  34
MONROE         FOG       45  43  93 N10       29.48F VSB 1/2
JANESVILLE     CLOUDY    46  46 100 NW14      29.48R FOG
$$

WIZ051-052-058>065-066-070>072-010800-
SOUTHEAST WISCONSIN

CITY           SKY/WX    TMP DP  RH WIND       PRES   REMARKS
MILWAUKEE      CLOUDY    41  39  93 N12       29.47F FOG
WAUKESHA       CLOUDY    37  37 100 NE7       29.48S FOG     WCI  32
MILWAUKEE/TIMM LGT RAIN  39  37  93 NE14      29.46F WCI  31
RACINE         CLOUDY    39  37  92 N10G21    29.49F WCI  32
KENOSHA        CLOUDY    44  43  96 NE12      29.47F FOG
FOND DU LAC    CLOUDY    36  33  89 N16       29.53F WCI  26
SHEBOYGAN      LGT RAIN  37  36  96 N13G18    29.49F WCI  29
WEST BEND      DRIZZLE   37  37 100 N7        29.49F WCI  32
JUNEAU         FOG       35  35  99 MISG      29.54R VSB 1
$$

LSZ147-162-010800-
LAKE SUPERIOR

STATION/POSITION TIME  TEMP    WIND        PRES    WAVE
                       AIR SEA DIR/SP/G            HT/PER
                 (UTC) (F)     (DEG/KT/KT) (MB)    (FT/S)
DEVILS ISLAND    0700   26      40/ 27/ 29 1011.5S
PORT WING        0700   27      50/ 22     1009.8
SAXON HARBOR     0700   29      50/ 21     1008.8
$$

LMZ867-665-643>646-010800-
LAKE MICHIGAN

STATION/POSITION TIME  TEMP    WIND        PRES    WAVE
                       AIR SEA DIR/SP/G            HT/PER
                 (UTC) (F)     (DEG/KT/KT) (MB)    (FT/S)
CHAMBERS ISLAND  0640   33     350/ 16/ 18 1002.0R
NORTHPORT PIER   0640   33     350/ 16/ 20 1002.0S
SISTER BAY       0650   33      10/ 15/ 20   N/A
KEWAUNEE LAKESHO 0654   36     350/ 10/ 14 1000.4R
SHEBOYGAN LAKESH 0700   38      20/ 24/ 28  999.0F
PORT WASHINGTON  0630   40      20/  6/ 11 1000.0F
MILWAUKEE LAKESH 0700   39      10/ 13/ 15   N/A
KENOSHA   LAKESH 0700   39      10/ 12/ 15  998.6
$$

TC  - TEMPERATURE IN CELSIUS
VSB - VISIBILITY IN STATUTE MILES
WCI - WIND CHILL INDEX
HX  - HEAT INDEX





USA.gov is the U.S. government's official web portal to all federal, state and local government web resources and services.